Temperature
18 18 18 18 18 18 18 18 19 19 19 19 19 19 19 18 18 18 18 18 18 19 19 19 19 19 19 19 19 19 19 19 19 18 18 18 18 18 18 18 18 18 18
19 18 18 18 18 18 18 18 18 18 18 18 18 18 18 18 18 18 18 18 18 18 18 19 19 19 19 19 19 19 19 19 19 18 18 18 18 18 18 18 18 18 18
18 18 18 18 18 18 18 18 18 18 18 18 18 18 18 18 18 18 18 18 18 18 18 18 18 18 18 18 18 18 18 18 18 18 18 18 18 18 18 18 18 18 18
18 18 18 18 18 18 18 18 18 18 18 18 18 18 18 18 18 18 18 18 18 18 18 18 18 18 18 18 18 18 18 18 18 18 18 18 18 18 18 18 18 18 18
18 18 18 18 18 18 18 18 18 18 18 17 17 17 17 17 17 17 17 17 17 17 17 17 18 18 18 18 18 18 18 18 18 18 18 18 18 18 18 18 18 18 18
18 18 18 18 18 18 18 18 18 17 17 17 17 17 17 17 17 17 17 17 17 17 17 17 17 17 18 18 18 18 18 18 18 18 18 18 18 18 18 18 18 18 18
18 18 18 18 18 18 17 17 17 17 17 17 17 17 17 17 17 17 17 17 17 17 17 17 17 17 17 17 17 18 18 18 18 18 18 18 18 18 18 18 18 18 18
18 18 18 18 18 17 17 17 17 17 17 16 16 16 16 16 16 16 16 16 16 16 17 17 17 17 17 17 17 17 17 18 18 18 18 18 18 18 18 18 18 18 18
18 18 18 18 18 17 17 17 17 16 16 16 16 16 16 16 16 16 16 16 16 16 16 16 16 16 17 17 17 17 17 17 18 18 18 18 18 18 17 17 18 18 18
18 18 18 18 18 17 17 17 17 16 16 16 16 16 16 16 16 16 16 16 16 16 16 16 16 16 16 17 17 17 17 17 17 18 18 18 17 17 17 17 17 18 18
18 18 18 18 18 17 17 17 17 16 16 16 16 16 15 15 15 15 15 15 15 16 16 16 16 16 16 16 16 17 17 17 17 17 18 17 17 17 17 17 17 18 18
19 18 18 18 18 17 17 17 16 16 16 16 16 15 15 15 15 15 15 15 15 15 15 15 15 16 16 16 16 16 17 17 17 17 17 17 17 17 17 17 17 17 18
19 19 18 18 17 17 17 17 16 16 16 16 15 15 15 15 15 15 15 15 15 15 15 15 15 15 15 16 16 16 16 17 17 17 17 17 17 17 17 17 17 17 18
19 19 18 18 18 17 17 16 16 16 16 15 15 15 15 15 15 15 15 15 15 15 15 15 15 15 15 15 16 16 16 16 16 17 17 17 17 17 17 17 17 17 17
19 19 18 18 18 17 17 16 16 16 15 15 15 15 15 15 15 14 14 14 14 15 15 15 15 15 15 15 15 15 16 16 16 16 17 17 17 17 17 17 17 17 17
19 19 18 18 18 17 17 16 16 16 15 15 15 15 15 15 14 14 14 14 14 14 14 14 15 15 15 15 15 15 15 16 16 16 16 17 17 17 17 17 17 17 17
19 19 18 18 17 17 17 16 16 15 15 15 15 15 14 14 14 14 14 14 14 14 14 14 14 14 15 15 15 15 15 15 16 16 16 16 16 17 17 17 17 17 17
19 19 18 18 17 17 17 16 16 15 15 15 15 14 14 14 14 14 14 14 14 14 14 14 14 14 14 15 15 15 15 15 15 16 16 16 16 16 17 17 17 17 17
19 19 19 18 17 17 16 16 15 15 15 15 15 14 14 14 14 14 13 13 13 13 14 14 14 14 14 14 14 15 15 15 15 16 16 16 16 16 16 17 17 17 17
19 19 19 18 17 17 16 16 15 15 15 15 14 14 14 14 13 13 13 13 13 13 13 13 14 14 14 14 14 14 15 15 15 15 16 16 16 16 16 16 16 17 17
19 19 19 18 17 17 16 16 15 15 15 14 14 14 14 13 13 13 13 13 13 13 13 13 13 13 14 14 14 14 14 15 15 15 15 16 16 16 16 16 16 16 17
20 19 19 18 17 17 16 16 15 15 15 14 14 14 14 13 13 13 13 13 13 13 13 13 13 13 13 14 14 14 14 14 15 15 15 15 15 16 16 16 16 16 16
20 19 19 18 18 17 16 16 15 15 15 14 14 14 14 13 13 13 13 13 13 13 13 13 13 13 13 13 13 14 14 14 14 14 15 15 15 15 16 16 16 16 16
20 19 19 18 17 17 16 16 15 15 15 14 14 14 14 13 13 13 13 13 13 13 13 13 13 13 13 13 13 13 14 14 14 14 14 15 15 15 15 15 16 16 16
20 19 19 18 17 17 16 16 15 15 15 14 14 14 13 13 13 13 13 13 13 13 13 13 13 13 13 13 13 13 13 13 14 14 14 14 14 15 15 15 15 15 16
20 19 18 18 17 17 16 16 15 15 15 14 14 14 13 13 13 13 13 13 13 13 13 12 12 13 13 13 13 13 13 13 13 14 14 14 14 14 14 15 15 15 15
Wind_Speed
2 4 7 8 9 9 8 8 8 8 7 7 6 6 6 5 5 5 5 4 4 4 4 4 4 3 3 3 3 3 2 3 3 3 3 2 2 2 2 3 3 2 3
5 6 9 8 8 8 7 7 7 6 6 6 5 5 4 4 3 3 3 3 3 3 3 3 2 2 2 1 1 1 1 2 2 3 3 3 1 1 1 2 2 2 2
6 7 9 9 9 8 7 6 6 5 5 5 4 4 3 2 2 2 1 1 2 2 2 2 2 2 1 1 0 0 1 2 2 3 3 3 2 1 1 1 1 2 2
7 7 8 9 9 8 7 6 6 5 4 4 3 2 1 1 0 0 1 2 2 3 3 3 3 3 3 2 2 1 2 2 2 3 3 3 3 2 1 0 1 1 1
6 7 8 9 8 7 6 6 5 4 3 3 2 1 1 1 1 1 2 3 3 4 4 4 4 4 4 3 3 3 3 3 3 3 3 3 3 3 2 1 0 1 1
6 6 7 8 8 7 6 5 4 3 2 2 1 1 1 2 2 3 3 4 4 5 5 5 5 5 5 5 4 4 3 3 2 2 2 3 3 3 3 2 1 0 1
6 5 6 8 7 6 5 4 4 3 2 1 1 1 2 2 3 4 4 4 5 5 6 6 6 6 6 5 5 5 4 3 2 1 2 3 4 4 4 3 2 1 0
6 5 5 7 7 6 5 4 3 2 1 1 1 2 2 3 4 4 5 5 5 6 6 7 7 7 7 6 5 5 5 3 2 1 2 3 5 5 4 3 3 2 1
4 4 3 3 4 4 4 3 2 1 0 1 2 2 3 4 4 5 5 6 6 6 6 6 7 7 7 6 6 6 6 4 1 2 3 3 5 6 5 4 3 2 2
3 3 3 2 2 2 1 2 1 1 1 2 3 3 4 5 5 6 5 5 6 6 6 6 6 6 6 6 6 6 5 3 2 2 3 4 6 7 6 4 3 3 2
4 3 3 2 2 2 2 1 0 1 3 4 4 5 5 5 5 6 6 5 5 5 5 5 5 5 5 4 5 5 3 1 2 2 3 6 7 7 6 5 5 4 3
6 4 4 4 2 2 1 0 1 2 3 3 4 5 5 5 5 5 6 6 6 6 6 5 5 4 3 3 3 3 1 2 2 3 4 6 7 7 6 6 5 5 4
6 5 4 4 3 2 1 1 1 1 2 3 3 4 3 4 5 5 5 6 7 6 6 6 5 4 3 1 2 2 1 2 2 3 4 6 7 7 6 6 6 5 5
5 5 4 4 3 2 2 1 1 0 1 1 2 3 2 2 2 3 2 4 4 4 4 3 3 3 3 2 1 2 2 2 3 3 4 6 7 6 6 7 6 6 6
6 6 4 4 4 3 2 1 1 0 1 1 2 2 2 1 1 2 2 3 3 3 2 2 2 2 2 2 2 1 3 3 3 3 4 5 5 5 5 6 7 7 7
7 6 4 5 5 4 3 2 1 1 1 2 2 2 2 2 1 1 2 2 2 3 2 1 1 2 2 2 2 2 2 3 3 3 3 4 5 4 4 5 6 7 7
6 6 5 5 5 5 4 3 2 2 2 1 1 2 2 2 1 1 1 2 3 3 3 2 2 1 1 1 2 2 2 2 2 2 3 3 4 3 3 4 5 6 6
7 6 6 5 5 5 3 3 2 2 2 1 1 2 2 2 1 1 1 2 3 3 2 1 1 1 2 2 2 2 2 1 2 2 1 2 2 2 2 2 4 4 5
8 7 6 5 6 5 4 2 2 2 2 1 1 1 2 2 2 1 1 2 3 2 2 2 1 1 1 2 2 1 1 1 2 1 1 1 1 1 1 1 3 3 4
7 6 6 5 5 5 3 3 2 2 2 2 1 2 2 2 2 1 1 2 2 1 2 2 1 1 1 1 1 1 2 2 1 1 1 1 1 1 1 1 2 3 4
6 6 6 6 5 5 3 2 1 0 1 1 1 2 2 3 3 1 1 2 2 1 2 1 1 1 2 1 1 2 3 3 2 1 1 0 1 1 1 1 2 3 3
7 7 7 7 6 5 3 2 2 1 1 1 2 2 2 3 3 1 1 1 1 1 2 2 1 0 1 2 1 1 2 3 3 2 1 1 1 1 1 1 2 3 3
8 8 8 7 6 5 4 3 3 2 2 2 2 2 3 3 3 2 1 1 2 1 1 1 0 1 0 1 1 2 2 1 2 3 2 2 2 1 1 1 2 2 3
8 7 7 7 6 5 5 4 4 3 2 3 2 2 3 3 3 3 2 2 2 1 2 2 1 1 1 0 1 1 1 2 1 1 2 2 2 2 1 1 1 1 2
7 7 6 6 5 5 5 5 4 3 2 1 1 2 3 3 3 3 2 2 2 2 2 1 0 1 1 1 1 0 1 1 1 2 0 2 2 1 1 1 0 1 1
5 6 6 7 5 5 5 5 5 5 3 2 2 2 3 3 3 3 2 2 2 2 2 2 1 1 1 1 1 1 1 1 1 1 1 0 1 2 1 1 0 1 1
Wind_Direction
178 186 166 154 143 136 132 128 125 121 119 116 117 118 121 129 136 133 137 141 144 138 131 128 126 121 116 106 99 85 70 57 53 52 40 36 55 48 48 51 53 51 49
156 164 158 148 141 135 129 125 123 120 117 115 115 115 116 120 131 139 144 156 158 148 145 146 144 142 137 127 109 83 47 40 37 28 21 15 10 24 41 54 52 44 43
137 146 149 144 139 133 128 127 126 121 117 114 112 113 117 124 131 142 155 184 199 191 188 189 195 200 208 209 213 10 1 356 6 10 8 359 327 292 327 57 52 43 43
137 141 148 145 141 136 131 127 122 118 114 110 107 100 101 98 85 169 237 249 254 253 247 241 241 243 243 243 256 287 314 327 338 357 2 340 309 278 273 258 49 52 48
136 144 152 147 143 139 135 132 127 119 114 108 99 77 45 344 307 290 271 269 272 273 263 259 260 260 261 262 266 276 292 303 323 353 351 337 320 288 263 241 197 68 62
141 148 154 151 148 144 141 137 125 115 107 97 80 22 339 323 317 302 289 283 280 277 271 267 266 267 265 269 274 280 290 301 326 347 338 315 303 280 264 243 221 196 97
150 153 159 160 157 154 150 140 128 118 100 70 51 19 350 325 312 303 298 296 294 288 277 276 271 269 267 266 268 276 286 300 308 298 302 292 284 273 262 238 217 203 152
155 156 165 171 168 165 160 155 146 132 99 41 17 356 338 329 320 312 299 300 298 294 285 278 272 268 269 267 264 271 282 298 312 304 284 279 273 263 249 235 219 199 186
148 145 156 168 171 173 174 171 166 163 104 12 355 347 338 329 328 327 317 310 303 298 292 286 278 270 268 266 268 272 278 282 285 269 283 281 272 257 244 233 221 209 189
143 151 155 157 158 177 193 193 185 185 16 4 359 358 355 355 352 341 332 321 311 302 299 297 290 282 277 274 276 278 282 285 259 257 272 281 273 258 245 229 220 214 190
174 178 173 174 178 184 194 212 182 343 8 15 10 10 12 9 2 353 342 341 334 322 314 313 304 296 290 291 292 289 288 287 267 260 261 273 271 257 243 223 216 212 191
196 199 193 193 190 186 192 146 3 5 17 18 16 15 16 11 8 6 360 359 357 354 345 337 330 333 330 318 309 307 314 292 269 262 265 272 264 252 240 226 215 211 192
197 197 194 189 178 167 151 107 40 15 18 17 20 21 25 22 18 17 12 1 1 4 5 355 354 353 351 326 312 311 292 284 269 268 277 277 265 254 239 225 218 214 198
184 194 192 177 167 161 142 104 82 40 22 19 20 31 48 33 16 9 9 358 0 1 0 359 347 342 344 339 314 297 290 278 266 266 279 282 270 253 233 219 217 214 200
184 190 187 172 166 154 135 126 101 86 69 38 25 38 67 64 16 358 352 359 355 359 356 343 344 343 340 332 319 292 286 291 275 274 282 295 283 252 236 221 218 210 198
189 189 177 167 162 149 149 148 144 121 97 67 44 43 61 81 56 5 351 345 342 341 335 334 333 335 322 313 316 313 289 284 274 267 272 288 285 261 248 230 219 209 201
185 180 175 171 156 153 156 155 136 124 104 84 62 55 59 71 73 15 345 335 326 333 339 350 350 348 334 339 334 329 302 290 277 269 268 269 276 265 257 237 216 205 203
173 175 182 171 154 154 151 142 117 111 98 77 59 44 32 30 41 29 344 324 329 343 346 346 356 350 342 339 327 325 316 300 285 274 274 273 260 249 254 236 212 202 208
177 173 170 158 152 149 137 112 90 86 74 56 44 22 6 4 9 32 339 321 341 357 353 342 22 5 332 324 310 318 321 311 305 309 300 286 274 231 206 212 192 189 207
170 168 162 151 145 129 110 87 63 52 34 26 19 353 356 351 354 8 342 330 347 7 356 353 2 5 321 303 325 9 346 330 328 330 294 296 358 352 212 190 175 188 197
162 167 166 158 156 142 131 131 124 134 328 337 332 340 342 339 345 356 334 337 352 358 331 330 349 13 360 348 42 12 359 1 3 350 344 352 352 3 29 156 159 157 178
174 175 172 172 167 170 160 150 154 150 216 266 307 324 333 338 336 333 321 317 325 337 350 359 30 52 360 23 106 91 8 354 351 1 3 41 15 36 39 97 136 145 156
183 183 183 180 174 174 150 114 86 60 32 7 333 313 317 322 321 316 304 302 310 290 295 303 290 133 99 356 43 135 137 219 311 339 358 15 16 32 17 51 103 138 159
193 183 179 175 171 168 156 156 155 161 191 231 248 278 305 315 315 314 312 313 303 285 275 278 212 170 142 45 353 30 116 164 149 350 343 352 12 27 11 17 44 113 151
182 176 175 168 172 171 174 173 163 171 198 234 274 294 308 315 315 314 306 307 299 283 272 266 227 175 162 163 167 123 68 60 89 136 324 338 356 344 352 349 20 70 116
169 168 167 171 183 183 182 180 178 183 191 213 263 284 302 309 310 315 306 301 293 284 276 254 216 189 185 170 167 156 151 141 156 132 165 320 331 319 317 323 357 23 70
Height
1509 1511 1512 1514 1515 1517 1518 1519 1519 1520 1521 1521 1522 1523 1523 1524 1524 1524 1525 1525 1525 1525 1524 1524 1524 1524 1524 1524 1524 1523 1523 1523 1522 1522 1522 1522 1521 1521 1521 1520 1520 1519 1518
1510 1511 1513 1514 1516 1517 1518 1519 1520 1520 1521 1521 1522 1522 1523 1523 1524 1524 1524 1524 1525 1525 1524 1524 1524 1524 1524 1524 1524 1523 1523 1523 1523 1522 1522 1522 1522 1521 1521 1520 1520 1519 1519
1510 1512 1513 1515 1516 1517 1518 1519 1520 1520 1521 1521 1522 1522 1522 1523 1523 1523 1524 1524 1524 1524 1524 1524 1524 1524 1524 1524 1524 1523 1523 1523 1523 1523 1522 1522 1522 1522 1521 1521 1520 1519 1519
1511 1513 1514 1516 1517 1518 1518 1519 1520 1520 1520 1521 1521 1521 1522 1522 1522 1522 1523 1523 1523 1523 1524 1524 1524 1524 1524 1524 1523 1523 1523 1523 1523 1523 1523 1522 1522 1522 1521 1521 1520 1520 1519
1512 1514 1515 1516 1517 1518 1519 1519 1520 1520 1520 1520 1520 1520 1520 1521 1521 1521 1522 1522 1522 1522 1522 1523 1523 1523 1523 1523 1523 1523 1523 1523 1523 1523 1523 1522 1522 1522 1522 1521 1521 1520 1520
1513 1514 1516 1517 1518 1518 1519 1519 1519 1519 1519 1519 1519 1519 1519 1520 1520 1520 1520 1520 1521 1521 1521 1521 1521 1521 1522 1522 1522 1522 1522 1522 1522 1522 1522 1522 1522 1522 1522 1521 1521 1520 1520
1514 1515 1516 1518 1518 1519 1519 1519 1519 1519 1519 1519 1519 1519 1519 1518 1518 1519 1519 1519 1519 1519 1519 1519 1519 1520 1520 1520 1520 1521 1521 1521 1521 1521 1522 1522 1522 1522 1522 1521 1521 1521 1520
1515 1516 1517 1518 1519 1519 1519 1519 1519 1519 1519 1519 1519 1518 1518 1518 1517 1517 1517 1517 1517 1517 1517 1517 1517 1518 1518 1518 1519 1519 1520 1520 1520 1520 1521 1521 1521 1521 1521 1521 1521 1521 1521
1516 1517 1518 1518 1519 1519 1519 1519 1519 1519 1519 1519 1518 1518 1518 1517 1517 1516 1516 1516 1516 1515 1515 1515 1515 1515 1516 1516 1517 1517 1518 1518 1518 1519 1520 1520 1521 1521 1521 1521 1521 1521 1521
1516 1517 1518 1519 1519 1519 1520 1520 1519 1519 1519 1518 1518 1517 1517 1516 1516 1515 1515 1514 1514 1514 1514 1513 1513 1513 1514 1514 1515 1515 1516 1516 1517 1518 1519 1519 1520 1520 1520 1521 1521 1521 1521
1516 1517 1518 1519 1519 1519 1519 1519 1519 1519 1518 1518 1517 1517 1516 1516 1515 1515 1514 1514 1513 1512 1512 1512 1511 1511 1512 1512 1513 1514 1514 1515 1515 1516 1517 1518 1519 1519 1520 1520 1521 1521 1521
1515 1517 1518 1519 1519 1519 1519 1519 1519 1518 1518 1518 1517 1516 1516 1515 1514 1514 1513 1513 1512 1511 1511 1510 1510 1510 1510 1510 1511 1512 1512 1513 1514 1514 1516 1517 1518 1518 1519 1520 1520 1521 1521
1515 1516 1517 1518 1519 1519 1519 1519 1518 1518 1517 1517 1516 1516 1515 1514 1513 1513 1512 1512 1511 1510 1510 1509 1509 1509 1509 1509 1509 1510 1510 1511 1512 1513 1514 1515 1516 1517 1518 1519 1520 1520 1521
1515 1516 1517 1518 1518 1518 1518 1518 1518 1517 1517 1516 1516 1515 1514 1513 1512 1512 1511 1510 1510 1509 1508 1508 1507 1507 1507 1507 1508 1508 1508 1509 1510 1511 1513 1514 1515 1516 1517 1518 1519 1520 1521
1514 1515 1517 1517 1518 1518 1518 1518 1517 1517 1516 1516 1515 1514 1513 1512 1511 1511 1510 1509 1508 1508 1507 1506 1506 1506 1506 1506 1506 1506 1507 1508 1509 1510 1511 1512 1514 1515 1516 1517 1518 1519 1520
1514 1515 1516 1517 1517 1517 1517 1517 1517 1516 1516 1515 1514 1514 1513 1512 1510 1509 1509 1508 1507 1506 1506 1505 1505 1504 1504 1504 1504 1505 1505 1506 1507 1508 1509 1511 1512 1514 1515 1516 1517 1518 1520
1513 1514 1515 1516 1517 1517 1517 1516 1516 1516 1515 1515 1514 1513 1512 1511 1509 1508 1507 1506 1505 1505 1504 1503 1503 1503 1503 1503 1503 1503 1503 1504 1505 1506 1507 1509 1510 1512 1513 1514 1516 1517 1519
1512 1514 1515 1515 1516 1516 1516 1516 1515 1515 1515 1514 1513 1512 1511 1510 1508 1507 1506 1505 1504 1503 1502 1502 1501 1501 1501 1501 1501 1502 1502 1502 1503 1504 1505 1507 1509 1510 1512 1513 1514 1516 1517
1511 1513 1514 1515 1515 1515 1515 1515 1515 1515 1514 1513 1512 1511 1510 1509 1507 1506 1505 1504 1503 1502 1501 1500 1500 1499 1499 1499 1500 1500 1500 1501 1502 1503 1504 1505 1507 1509 1510 1512 1513 1515 1516
1510 1512 1513 1514 1514 1514 1514 1514 1514 1514 1513 1513 1512 1510 1509 1508 1506 1505 1504 1503 1502 1501 1500 1499 1498 1498 1498 1498 1498 1499 1499 1500 1501 1501 1502 1504 1505 1507 1509 1511 1512 1513 1515
1509 1510 1512 1512 1513 1513 1513 1513 1513 1513 1512 1512 1511 1510 1508 1507 1506 1504 1503 1502 1501 1500 1499 1498 1497 1497 1497 1497 1497 1498 1498 1498 1499 1500 1501 1502 1504 1505 1507 1509 1511 1512 1514
1507 1509 1510 1511 1512 1512 1513 1513 1512 1512 1511 1511 1510 1509 1508 1506 1505 1504 1502 1501 1500 1499 1498 1497 1496 1496 1496 1496 1496 1497 1497 1499 1498 1499 1500 1501 1502 1504 1505 1507 1509 1511 1513
1505 1507 1509 1510 1511 1511 1512 1512 1511 1511 1511 1510 1509 1508 1507 1506 1505 1503 1502 1501 1499 1498 1497 1496 1496 1495 1495 1495 1495 1496 1496 1496 1497 1498 1498 1499 1501 1502 1504 1505 1507 1509 1511
1504 1506 1508 1509 1510 1510 1511 1510 1510 1510 1510 1509 1508 1507 1506 1505 1504 1503 1501 1500 1498 1497 1496 1495 1495 1494 1494 1494 1495 1495 1496 1496 1497 1497 1498 1498 1499 1500 1502 1504 1506 1507 1509
1502 1504 1506 1507 1508 1509 1509 1509 1509 1509 1509 1508 1508 1507 1506 1505 1503 1502 1500 1499 1497 1496 1495 1495 1494 1494 1494 1494 1494 1495 1495 1496 1496 1497 1497 1498 1499 1500 1501 1502 1504 1506 1508
1501 1503 1504 1506 1507 1507 1508 1508 1508 1508 1508 1507 1507 1506 1505 1504 1503 1501 1500 1498 1497 1495 1494 1494 1493 1493 1493 1493 1493 1494 1495 1495 1495 1496 1496 1497 1498 1499 1500 1501 1502 1504 1506